Flag for Germany Weather past 2 weeks in Sankt Ingbert, Saarland, Germany

Now
61 °F

Low clouds.


Feels Like: 61 °F
Forecast: 41 / 58 °F
Wind: 3 mph from Southwest

Location: Saarbruecken / Ensheim

Current Time: Oct 20, 2014 at 12:17:09 PM

Latest Report: Oct 20, 2014 at 11:00 AM


Visibility: 11 mi

Pressure: 30.11 "Hg

Humidity: 92%

Dew point: 58 °F

Location of Sankt IngbertLocation

Historic Weather in Sankt Ingbert — Graph

°F

Sankt Ingbert temperature yesterday

Maximum temperature yesterday: 71 °F (at 4:00 PM)
Minimum temperature yesterday: 53 °F (at 1:00 AM)
Average temperature yesterday: 61 °F

Past Weeks' High & Low Weather Summary

 TemperatureHumidityPressure
High71 °F (Oct 19, 4:00 PM)100% (Oct 10, 3:00 AM)30.18 "Hg (Oct 10, 3:00 AM)
Low45 °F (Oct 12, 6:00 AM)61% (Oct 18, 3:00 PM)29.64 "Hg (Oct 7, 9:00 AM)
Average57 °F92%29.90 "Hg
* Reported Oct 5 11:00 AM — Oct 20 11:00 AM, Sankt Ingbert, Weather by CustomWeather, © 2014

Note: Actual official high and low records may vary slightly from our data, if they occured in-between our weather recording intervals... More about our weather records

Advertising

Sankt Ingbert weather history for previous 24 hours

 ConditionsComfort  
Time TempWeatherWind HumidityBarometerVisibility
11:00 AM
Oct 20
61 °FLow clouds.3 mph92%30.11 "Hg11 mi
10:00 AM59 °FLow clouds.5 mph97%30.12 "Hg7 mi
9:00 AM59 °FLow clouds.3 mph96%30.11 "Hg10 mi
8:00 AM59 °FLow clouds.3 mph95%30.10 "Hg11 mi
7:00 AM59 °FLow clouds.3 mph94%30.11 "Hg11 mi
5:00 AM59 °FOvercast.2 mph93%30.11 "Hg12 mi
4:00 AM60 °FPassing clouds.3 mph91%30.12 "Hg16 mi
3:00 AM61 °FOvercast.5 mph89%30.13 "Hg16 mi
2:00 AM61 °FOvercast.5 mph89%30.13 "Hg19 mi
1:00 AM60 °FPassing clouds.3 mph89%30.13 "Hg19 mi
12:00 AM62 °FPassing clouds.5 mph86%30.12 "Hg19 mi
11:00 PM
Oct 19
62 °FPassing clouds.5 mph87%30.12 "Hg19 mi
10:00 PM63 °FPassing clouds.6 mph85%30.11 "Hg22 mi
9:00 PM64 °FPassing clouds.5 mph86%30.10 "Hg25 mi
8:00 PM65 °FOvercast.6 mph84%30.10 "Hg31 mi
7:00 PM66 °FOvercast.6 mph81%30.08 "Hg31 mi
6:00 PM68 °FOvercast.5 mph76%30.07 "Hg31 mi
5:00 PM70 °FOvercast.5 mph71%30.07 "Hg31 mi
4:00 PM71 °FOvercast.7 mph71%30.07 "Hg31 mi
3:00 PM70 °FPassing clouds.6 mph72%30.09 "Hg31 mi
2:00 PM67 °FScattered clouds.7 mph78%30.11 "Hg31 mi
1:00 PM66 °FScattered clouds.7 mph81%30.13 "Hg25 mi
12:00 PM65 °FScattered clouds.7 mph85%30.12 "Hg22 mi
Weather by CustomWeather, © 2014

See weather overviewHow to use our weather pages